Regional Weather Roundup
Issued by NWS

Home | Current Version | Previous Version | Graphics & Text | Print | Product List | Glossary On
Versions: 1 2 3 4 5 6 7 8 9 10 11 12 13 14 15 16 17 18 19 20 21 22 23 24 25 26 27 28 29 30 31 32 33 34 35 36 37 38 39 40 41 42 43 44 45 46 47 48 49 50
521
ASUS43 KDMX 060801
RWRIA

WEATHER ROUNDUP FOR IOWA
NATIONAL WEATHER SERVICE DES MOINES IA
200 AM CST TUE DEC 06 2016

NOTE: "FAIR" INDICATES FEW OR NO CLOUDS BELOW 12,000 FEET WITH NO
SIGNIFICANT WEATHER AND/OR OBSTRUCTIONS TO VISIBILITY.

* - THESE STATIONS ARE NOT NWS STATIONS...THUS NOT UNDER NWS
QUALITY CONTROL.  THEY ALSO DO NOT REPORT WEATHER SUCH
AS PRECIPITATION OR FOG.

IAZ001>003-012>014-020>022-031>034-043>046-060900-
   NORTHWEST IOWA

CITY           SKY/WX    TMP DP  RH WIND       PRES   REMARKS
CARROLL *      CLOUDY    32  27  80 NW21G26   29.84S WCI  20
CHEROKEE *     CLOUDY    27  21  77 NW15G22   29.86R WCI  16
DENISON *      CLOUDY    30  23  74 NW14      29.84R WCI  20
LE MARS *      MOCLDY    27  18  69 NW22G30   29.88R WCI  12
ORANGE CITY *  CLOUDY    25  18  74 NW25G32   29.83R WCI   9
SHELDON *      CLOUDY    25  19  80 W23       29.80S WCI  10
SIOUX CITY     CLOUDY    28  16  60 NW20G32   29.88R WCI  15
SPENCER        CLOUDY    26  18  71 W35       29.81R WCI   9
STORM LAKE *   CLOUDY    27  19  74 NW25      29.82R WCI  11
$$

IAZ055>058-069>071-079>083-090>094-060900-
   SOUTHWEST IOWA

CITY           SKY/WX    TMP DP  RH WIND       PRES   REMARKS
ATLANTIC *     CLOUDY    32  27  80 NW15      29.85R WCI  22
AUDUBON *      CLOUDY    30  27  86 NW10G20   29.85R WCI  21
CLARINDA *       N/A     34  28  80 NW15G23   29.89R WCI  24
COUNCIL BLFS * CLOUDY    30  23  74 NW17G24   29.90R WCI  18
CRESTON *      MIX PCPN  34  32  93 NW17      29.82S WCI  23
HARLAN  *      CLOUDY    30  25  80 NW20      29.91R WCI  18
LAMONI         CLOUDY    35  35 100 NW5       29.80R WCI  31
RED OAK *      CLOUDY    32  27  80 NW16      29.89R WCI  21
SHENANDOAH *   CLOUDY    34  27  75 NW15G22   29.90R WCI  24
$$

IAZ047>049-059>061-072>074-084-060900-
   CENTRAL IOWA

CITY           SKY/WX    TMP DP  RH WIND       PRES   REMARKS
AMES           CLOUDY    35  35 100 NW12      29.82R WCI  27
ANKENY *       MIX PCPN  36 N/A N/A NW15G24   29.83R WCI  26
BOONE *        LGT SNOW  32  32 100 NW16G25   29.81R WCI  21
CHARITON *       N/A     37  36  93 SW3       29.80R FOG
DES MOINES     LGT RAIN  38  34  85 N15G26    29.81R WCI  29
GRINNELL*      CLOUDY    36  35  96 S5        29.81R FOG     WCI  32
KNOXVILLE *    CLOUDY    37  36  93 SW5       29.79R FOG     WCI  34
MARSHALLTOWN   CLOUDY    36  35  96 S8        29.79R FOG     WCI  30
NEWTON *       CLOUDY    37  36  93 SW8       29.80R FOG     WCI  31
PELLA *        CLOUDY    38  36  92 SW5       29.82R FOG     WCI  34
PERRY *        LGT SNOW  33  32  97 NW17      29.84R WCI  22
$$

IAZ004>006-015-016-023>025-035-036-060900-
   NORTH CENTRAL IOWA

CITY           SKY/WX    TMP DP  RH WIND       PRES   REMARKS
ALGONA *       CLOUDY    32  25  74 W20       29.79S WCI  20
CLARION *      CLOUDY    32  32 100 W17G26    29.81R WCI  21
ESTHERVILLE    CLOUDY    28  23  81 W17       29.78R WCI  16
FORT DODGE *   CLOUDY    32  25  74 W10G16    29.83R WCI  24
MASON CITY     LGT SNOW  32  30  92 W15G24    29.80R FOG     WCI  22
WEBSTER CITY * FLURRIES  34  32  93 NW18      29.80R WCI  23
IOWA FALLS *   RAIN      35  34  96 W13       29.80R WCI  26
$$

IAZ007>011-017>019-026>030-037>042-050>054-066-060900-
   NORTHEAST IOWA

CITY           SKY/WX    TMP DP  RH WIND       PRES   REMARKS
CEDAR RAPIDS   CLOUDY    33  33 100 SE7       29.81F WCI  27
CHARLES CITY * CLOUDY    34  34 100 S12       29.78S FOG     WCI  25
CLINTON *      MIX PCPN  33  32  96 SE8       29.85S FOG     WCI  26
DECORAH *      CLOUDY    32  30  93 S12       29.79R FOG     WCI  23
DUBUQUE        LGT SNOW  30  30 100 S8        29.84S VSB 1   WCI  22
MONTICELLO *   CLOUDY    32  30  93 SE6       29.83F WCI  26
OELWEIN *      CLOUDY    32  32 100 S15       29.81R FOG     WCI  22
WATERLOO       CLOUDY    33  32  96 S12       29.80R FOG     WCI  24
$$

IAZ064-065-067-068-078-060900-
   EAST CENTRAL IOWA

CITY           SKY/WX    TMP DP  RH WIND       PRES   REMARKS
DAVENPORT      CLOUDY    33  33 100 SE6       29.84S FOG     WCI  28
IOWA CITY      CLOUDY    35  32  88 E5        29.84F WCI  31
MUSCATINE *    CLOUDY    37  34  87 CALM      29.85R
QUAD CITIES    CLOUDY    35  32  88 E8        29.83S FOG     WCI  29
$$

IAZ062-063-075>077-085>089-095>099-060900-
   SOUTHEAST IOWA

CITY           SKY/WX    TMP DP  RH WIND       PRES   REMARKS
BURLINGTON     CLOUDY    35  34  96 S7        29.82R WCI  29
FAIRFIELD *    CLOUDY    36  34  93 S5        29.81S WCI  32
FORT MADISON * CLOUDY    36  34  93 S3        29.83R FOG
KEOKUK *       CLOUDY    36  34  93 CALM      29.81S FOG
OSKALOOSA *    CLOUDY    36  34  95 S7        29.81S FOG     WCI  30
CENTERVILLE *  CLOUDY    36  36 100 CALM      29.81S
OTTUMWA        CLOUDY    37  34  89 S7        29.80S FOG     WCI  32
WASHINGTON *   CLOUDY    36  34  93 E5        29.83S FOG     WCI  32
$$

ABBREVIATIONS USED IN REMARKS
   TC - TEMPERATURES IN CELSIUS
  WCI - WIND CHILL INDEX
   HX - HEAT INDEX
  VSB - VISIBILITY
$$





USA.gov is the U.S. government's official web portal to all federal, state and local government web resources and services.